Regional Weather Roundup
Issued by NWS Albany, NY

Home | Current Version | Previous Version | Text Only | Print | Product List | Glossary On
Versions: 1 2 3 4 5 6 7 8 9 10 11 12 13 14 15 16 17 18 19 20 21 22 23 24 25 26 27 28 29 30 31 32 33 34 35 36 37 38 39 40 41 42 43 44 45 46 47 48 49 50
616
ASUS41 KALY 240110
RWRALY

NEW YORK STATE HOURLY WEATHER ROUNDUP
NATIONAL WEATHER SERVICE ALBANY NY
900 PM EDT TUE MAY 23 2017

NOTE: "FAIR" INDICATES FEW OR NO CLOUDS BELOW 12,000 FEET WITH NO
SIGNIFICANT WEATHER AND/OR NO OBSTRUCTIONS TO VISIBILITY.

NYZ032-033-038>043-046>054-057>066-NYZ062>081-082-084-240200-
EAST


CITY           SKY/WX    TMP DP  RH WIND       PRES   REMARKS
ALBANY         CLOUDY    62  49  62 S6        29.81F
GLENS FALLS    NOT AVBL
POUGHKEEPSIE   CLOUDY    58  52  80 CALM      29.82S
NEWBURGH       MOCLDY    59  52  77 CALM      29.84F
MONTGOMERY     CLOUDY    58  54  86 CALM      29.82F
WHITE PLAINS   CLOUDY    61  53  75 CALM      29.82F
ISLIP          CLOUDY    60  50  69 SW3       29.83F
NEW YORK CITY  CLOUDY    66  49  54 S7        29.82F
CENTRAL PARK   CLOUDY    64  48  56 CALM      29.85F
$$

NYZ005>009-017-018-044>046-055-056-240200-
CENTRAL


CITY           SKY/WX    TMP DP  RH WIND       PRES   REMARKS
FULTON         CLOUDY    62  51  67 NE5       29.78F
SYRACUSE       CLOUDY    64  51  62 CALM      29.78S
ROME           PTCLDY    59  53  80 NE3       29.79F
ELMIRA         CLOUDY    59  47  64 NW5       29.78F
BINGHAMTON     CLOUDY    60  45  57 SW5       29.82S
MONTICELLO     CLOUDY    57  50  77 CALM      29.85F
$$

NYZ026>034-041>043-087-240200-
NORTH


CITY           SKY/WX    TMP DP  RH WIND       PRES   REMARKS
WATERTOWN      CLEAR     55  52  89 CALM      29.79F
FORT DRUM      NOT AVBL
OGDENSBURG     FAIR      63  52  67 CALM      29.78S
MASSENA        PTCLDY    62  50  64 CALM      29.79S
SARANAC LAKE   CLEAR     55  49  80 CALM      29.82S
PLATTSBURGH    CLOUDY    59  54  83 CALM      29.79S
$$

NYZ001>004-010>016-019>021-085-240200-
WEST


CITY           SKY/WX    TMP DP  RH WIND       PRES   REMARKS
NIAGARA FALLS  CLOUDY    66  50  56 NE8       29.76S
BUFFALO        MOCLDY    68  49  50 NE9       29.76S
DUNKIRK        PTCLDY    59  50  72 CALM      29.75S
JAMESTOWN      PTCLDY    63  46  55 CALM      29.78S
WELLSVILLE     CLOUDY    63  40  42 S7        29.81F
ROCHESTER      CLOUDY    64  49  57 E6        29.78F
PENN YAN       CLOUDY    63  50  62 CALM      29.79S
$$

             KEY
       WCI = WIND CHILL INDEX
       VSB = VISIBILITY
       HX  = HEAT INDEX
$$




USA.gov is the U.S. government's official web portal to all federal, state and local government web resources and services.